[TLELIST] Archives

 

[list_settings.list_name] Current TLEs

January 16th 2010 PST

HST 1 20580U 90037B 10012.78322287 .00000366 00000-0 15235-4 0 5033 2 20580 028.4687 174.3033 0003229 348.3260 011.7260 15.00877270881376 ISS (ZARYA) 1 25544U 98067A 10015.35428362 .00018304 00000-0 11160-3 0 3745 2 25544 051.6465 295.7899 0007313 184.2959 274.6486 15.77466101639395 CXO 1 25867U 99040B 10015.70833333 -.00000318 00000-0 10000-3 0 4168 2 25867 066.3899 060.7765 7918915 275.2218 001.3945 00.37804891 5815 ____________________________________________________________________ These 2-Line ...Continue Reading

[list_settings.list_name] Current TLEs

January 15th 2010 PST

HST 1 20580U 90037B 10012.78322287 .00000366 00000-0 15235-4 0 5033 2 20580 028.4687 174.3033 0003229 348.3260 011.7260 15.00877270881376 ISS (ZARYA) 1 25544U 98067A 10014.47737641 .00013638 00000-0 84376-4 0 3701 2 25544 051.6453 300.3185 0007333 181.5029 334.2561 15.77421829639253 CXO 1 25867U 99040B 10013.04166667 -.00000448 00000-0 10000-3 0 4155 2 25867 066.3789 060.8787 7915203 275.2107 358.4044 00.37806221 5806 ____________________________________________________________________ These 2-Line ...Continue Reading

[list_settings.list_name] Current TLEs

January 14th 2010 PST

HST 1 20580U 90037B 10012.78322287 .00000366 00000-0 15235-4 0 5033 2 20580 028.4687 174.3033 0003229 348.3260 011.7260 15.00877270881376 ISS (ZARYA) 1 25544U 98067A 10013.39040669 .00060788 00000-0 36038-3 0 3639 2 25544 051.6472 305.9276 0007111 177.4454 281.6187 15.77422329639082 CXO 1 25867U 99040B 10013.04166667 -.00000448 00000-0 10000-3 0 4155 2 25867 066.3789 060.8787 7915203 275.2107 358.4044 00.37806221 5806 ____________________________________________________________________ These 2-Line ...Continue Reading

[list_settings.list_name] Current TLEs

January 13th 2010 PST

HST 1 20580U 90037B 10009.85735511 .00000291 00000-0 94489-5 0 5019 2 20580 028.4685 193.3983 0003260 317.8077 042.2266 15.00875675880934 ISS (ZARYA) 1 25544U 98067A 10012.37585845 .00012666 00000-0 78927-4 0 3575 2 25544 051.6463 311.1596 0007561 172.3695 281.6212 15.77342124638921 CXO 1 25867U 99040B 10013.04166667 -.00000448 00000-0 10000-3 0 4155 2 25867 066.3789 060.8787 7915203 275.2107 358.4044 00.37806221 5806 ____________________________________________________________________ These 2-Line ...Continue Reading

[list_settings.list_name] Current TLEs

January 12th 2010 PST

HST 1 20580U 90037B 10009.85735511 .00000291 00000-0 94489-5 0 5019 2 20580 028.4685 193.3983 0003260 317.8077 042.2266 15.00875675880934 ISS (ZARYA) 1 25544U 98067A 10011.37137664 .00011948 00000-0 74779-4 0 3502 2 25544 051.6469 316.3428 0007643 168.5695 337.7250 15.77312504638762 CXO 1 25867U 99040B 10010.41666667 -.00000462 00000-0 10000-3 0 4143 2 25867 066.3691 060.9934 7909616 275.1960 001.0876 00.37807078 5793 ____________________________________________________________________ These 2-Line ...Continue Reading

[list_settings.list_name] Current TLEs

January 11th 2010 PST

HST 1 20580U 90037B 10009.85735511 .00000291 00000-0 94489-5 0 5019 2 20580 028.4685 193.3983 0003260 317.8077 042.2266 15.00875675880934 ISS (ZARYA) 1 25544U 98067A 10010.41184340 .00011599 00000-0 72793-4 0 3437 2 25544 051.6471 321.2929 0007674 165.3260 288.7859 15.77287362638610 CXO 1 25867U 99040B 10010.41666667 -.00000462 00000-0 10000-3 0 4143 2 25867 066.3691 060.9934 7909616 275.1960 001.0876 00.37807078 5793 ____________________________________________________________________ These 2-Line ...Continue Reading

[list_settings.list_name] Current TLEs

January 10th 2010 PST

HST 1 20580U 90037B 10007.92894111 .00000307 00000-0 10695-4 0 5000 2 20580 028.4695 205.9860 0003263 296.5943 063.4311 15.00875423880642 ISS (ZARYA) 1 25544U 98067A 10009.40696956 .00011485 00000-0 72196-4 0 3379 2 25544 051.6475 326.4774 0007775 161.7934 342.5989 15.77262608638450 CXO 1 25867U 99040B 10007.75000000 -.00000294 00000-0 10000-3 0 4131 2 25867 066.3558 061.0857 7901266 275.2083 358.0652 00.37806206 5789 ____________________________________________________________________ These 2-Line ...Continue Reading

[list_settings.list_name] Current TLEs

January 9th 2010 PST

HST 1 20580U 90037B 10007.92894111 .00000307 00000-0 10695-4 0 5000 2 20580 028.4695 205.9860 0003263 296.5943 063.4311 15.00875423880642 ISS (ZARYA) 1 25544U 98067A 10008.39226405 .00010963 00000-0 69179-4 0 3304 2 25544 051.6468 331.7111 0007647 158.6977 340.1974 15.77236209638294 CXO 1 25867U 99040B 10007.75000000 -.00000294 00000-0 10000-3 0 4131 2 25867 066.3558 061.0857 7901266 275.2083 358.0652 00.37806206 5789 ____________________________________________________________________ These 2-Line ...Continue Reading

[list_settings.list_name] Current TLEs

January 8th 2010 PST

HST 1 20580U 90037B 10006.86498872 .00000329 00000-0 12405-4 0 4998 2 20580 028.4697 212.9301 0003271 285.0678 074.9550 15.00875268880480 ISS (ZARYA) 1 25544U 98067A 10007.37812834 .00010783 00000-0 68181-4 0 3254 2 25544 051.6472 336.9444 0007769 154.8913 341.8416 15.77212179638130 CXO 1 25867U 99040B 10007.75000000 -.00000294 00000-0 10000-3 0 4131 2 25867 066.3558 061.0857 7901266 275.2083 358.0652 00.37806206 5789 ____________________________________________________________________ These 2-Line ...Continue Reading

[list_settings.list_name] Current TLEs

January 7th 2010 PST

HST 1 20580U 90037B 10003.07465982 .00000330 00000-0 12489-4 0 4976 2 20580 028.4706 237.6697 0003460 245.1077 114.9201 15.00874082879910 ISS (ZARYA) 1 25544U 98067A 10006.36727047 .00010110 00000-0 64252-4 0 3184 2 25544 051.6467 342.1587 0007906 151.7998 001.4790 15.77186643637974 CXO 1 25867U 99040B 10002.45833333 -.00000087 00000-0 10000-3 0 4125 2 25867 066.3270 061.3427 7891244 275.2183 357.5720 00.37807115 5769 ____________________________________________________________________ These 2-Line ...Continue Reading
  • This mailing list is a public mailing list - anyone may join or leave, at any time.
  • This mailing list is announce-only.

International Space Station (ISS) / Hubble Space Telescope (HST) / Chandra X-Ray Observatory Orbital Data via EMAIL

Privacy Policy:

Private list